Time,TemperatureF,DewpointF,PressureIn,WindDirection,WindDirectionDegrees,WindSpeedMPH,WindSpeedGustMPH,Humidity,HourlyPrecipIn,Conditions,Clouds,dailyrainin,SoftwareType,DateUTC
2013-03-06 00:32:00,30.0,25.0,29.74,West,280,13.0,22.0,80,-99.99,,,-99.99,,2013-03-06 05:32:00,
2013-03-06 00:42:00,30.0,25.0,29.74,West,280,13.0,22.0,80,-99.99,,,-99.99,,2013-03-06 05:42:00,
2013-03-06 00:52:00,30.0,25.0,29.74,West,280,13.0,22.0,80,-99.99,,,-99.99,,2013-03-06 05:52:00,
2013-03-06 01:12:00,28.0,27.0,29.74,West,270,8.0,-999.0,92,-99.99,,,-99.99,,2013-03-06 06:12:00,
2013-03-06 01:22:00,28.0,27.0,29.74,West,270,8.0,-999.0,92,-99.99,,,-99.99,,2013-03-06 06:22:00,
2013-03-06 01:32:00,28.0,27.0,29.74,West,270,8.0,-999.0,92,-99.99,,,-99.99,,2013-03-06 06:32:00,
2013-03-06 01:42:00,28.0,27.0,29.74,West,270,8.0,-999.0,92,-99.99,,,-99.99,,2013-03-06 06:42:00,
2013-03-06 01:52:00,28.0,27.0,29.74,West,270,8.0,-999.0,92,-99.99,,,-99.99,,2013-03-06 06:52:00,
2013-03-06 02:22:00,28.0,25.0,29.72,NNW,330,12.0,17.0,86,-99.99,,,-99.99,,2013-03-06 07:22:00,
2013-03-06 02:32:00,28.0,25.0,29.72,NNW,330,12.0,17.0,86,-99.99,,,-99.99,,2013-03-06 07:32:00,
2013-03-06 02:42:00,28.0,25.0,29.72,NNW,330,12.0,17.0,86,-99.99,,,-99.99,,2013-03-06 07:42:00,
2013-03-06 02:52:00,28.0,25.0,29.72,NNW,330,12.0,17.0,86,-99.99,,,-99.99,,2013-03-06 07:52:00,
2013-03-06 03:32:00,27.0,25.0,29.72,West,270,7.0,-999.0,92,-99.99,,,-99.99,,2013-03-06 08:32:00,
2013-03-06 03:42:00,27.0,25.0,29.72,West,270,7.0,-999.0,92,-99.99,,,-99.99,,2013-03-06 08:42:00,
2013-03-06 03:52:00,27.0,25.0,29.72,West,270,7.0,-999.0,92,-99.99,,,-99.99,,2013-03-06 08:52:00,
2013-03-06 04:12:00,25.0,21.0,29.74,WSW,250,6.0,-999.0,85,-99.99,,,-99.99,,2013-03-06 09:12:00,
2013-03-06 04:22:00,25.0,21.0,29.74,WSW,250,6.0,-999.0,85,-99.99,,,-99.99,,2013-03-06 09:22:00,
2013-03-06 04:32:00,25.0,21.0,29.74,WSW,250,6.0,-999.0,85,-99.99,,,-99.99,,2013-03-06 09:32:00,
2013-03-06 04:42:00,25.0,21.0,29.74,WSW,250,6.0,-999.0,85,-99.99,,,-99.99,,2013-03-06 09:42:00,
2013-03-06 04:52:00,25.0,21.0,29.74,WSW,250,6.0,-999.0,85,-99.99,,,-99.99,,2013-03-06 09:52:00,
2013-03-06 05:22:00,23.0,19.0,29.75,NW,320,10.0,24.0,85,-99.99,,,-99.99,,2013-03-06 10:22:00,
2013-03-06 05:32:00,23.0,19.0,29.75,NW,320,10.0,24.0,85,-99.99,,,-99.99,,2013-03-06 10:32:00,
2013-03-06 05:42:00,23.0,19.0,29.75,NW,320,10.0,24.0,85,-99.99,,,-99.99,,2013-03-06 10:42:00,
2013-03-06 05:52:00,23.0,19.0,29.75,NW,320,10.0,24.0,85,-99.99,,,-99.99,,2013-03-06 10:52:00,
2013-03-06 07:12:00,25.0,19.0,29.78,North,-99,5.0,-999.0,79,-99.99,,,-99.99,,2013-03-06 12:12:00,
2013-03-06 07:22:00,25.0,19.0,29.78,North,-99,5.0,-999.0,79,-99.99,,,-99.99,,2013-03-06 12:22:00,
2013-03-06 07:33:00,25.0,19.0,29.78,North,-99,5.0,-999.0,79,-99.99,,,-99.99,,2013-03-06 12:33:00,
2013-03-06 07:42:00,25.0,19.0,29.78,North,-99,5.0,-999.0,79,-99.99,,,-99.99,,2013-03-06 12:42:00,
2013-03-06 07:52:00,25.0,19.0,29.78,North,-99,5.0,-999.0,79,-99.99,,,-99.99,,2013-03-06 12:52:00,
2013-03-06 08:52:00,25.0,19.0,29.80,WNW,290,5.0,-999.0,79,-99.99,,,-99.99,,2013-03-06 13:52:00,
2013-03-06 09:22:00,27.0,21.0,29.83,NW,310,8.0,-999.0,79,-99.99,,,-99.99,,2013-03-06 14:22:00,
2013-03-06 09:32:00,27.0,21.0,29.83,NW,310,8.0,-999.0,79,-99.99,,,-99.99,,2013-03-06 14:32:00,
2013-03-06 09:42:00,27.0,21.0,29.83,NW,310,8.0,-999.0,79,-99.99,,,-99.99,,2013-03-06 14:42:00,
2013-03-06 09:52:00,27.0,21.0,29.83,NW,310,8.0,-999.0,79,-99.99,,,-99.99,,2013-03-06 14:52:00,
2013-03-06 10:12:00,27.0,21.0,29.87,WNW,300,5.0,-999.0,79,-99.99,,,-99.99,,2013-03-06 15:12:00,
2013-03-06 10:22:00,27.0,21.0,29.87,WNW,300,5.0,-999.0,79,-99.99,,,-99.99,,2013-03-06 15:22:00,
2013-03-06 10:32:00,27.0,21.0,29.87,WNW,300,5.0,-999.0,79,-99.99,,,-99.99,,2013-03-06 15:32:00,
2013-03-06 10:42:00,27.0,21.0,29.87,WNW,300,5.0,-999.0,79,-99.99,,,-99.99,,2013-03-06 15:42:00,
2013-03-06 10:52:00,27.0,21.0,29.87,WNW,300,5.0,-999.0,79,-99.99,,,-99.99,,2013-03-06 15:52:00,
2013-03-06 11:12:00,28.0,23.0,29.88,North,-99,7.0,-999.0,79,-99.99,,,-99.99,,2013-03-06 16:12:00,
2013-03-06 11:21:00,28.0,23.0,29.88,North,-99,7.0,-999.0,79,-99.99,,,-99.99,,2013-03-06 16:21:00,
2013-03-06 11:32:00,28.0,23.0,29.88,North,-99,7.0,-999.0,79,-99.99,,,-99.99,,2013-03-06 16:32:00,
2013-03-06 11:42:00,28.0,23.0,29.88,North,-99,7.0,-999.0,79,-99.99,,,-99.99,,2013-03-06 16:42:00,
2013-03-06 11:52:00,28.0,23.0,29.88,North,-99,7.0,-999.0,79,-99.99,,,-99.99,,2013-03-06 16:52:00,
2013-03-06 12:22:00,27.0,21.0,29.90,NW,320,12.0,21.0,79,-99.99,,,-99.99,,2013-03-06 17:22:00,
2013-03-06 12:32:00,27.0,21.0,29.90,NW,320,12.0,21.0,79,-99.99,,,-99.99,,2013-03-06 17:32:00,
2013-03-06 12:42:00,27.0,21.0,29.90,NW,320,12.0,21.0,79,-99.99,,,-99.99,,2013-03-06 17:42:00,
2013-03-06 12:52:00,27.0,21.0,29.90,NW,320,12.0,21.0,79,-99.99,,,-99.99,,2013-03-06 17:52:00,
2013-03-06 13:52:00,28.0,25.0,29.92,NNW,330,13.0,25.0,86,-99.99,,,-99.99,,2013-03-06 18:52:00,
2013-03-06 14:11:00,28.0,27.0,29.92,North,-99,7.0,-999.0,92,-99.99,,,-99.99,,2013-03-06 19:11:00,
2013-03-06 14:22:00,28.0,27.0,29.92,North,-99,7.0,-999.0,92,-99.99,,,-99.99,,2013-03-06 19:22:00,
2013-03-06 14:32:00,28.0,27.0,29.92,North,-99,7.0,-999.0,92,-99.99,,,-99.99,,2013-03-06 19:32:00,
2013-03-06 14:43:00,28.0,27.0,29.92,North,-99,7.0,-999.0,92,-99.99,,,-99.99,,2013-03-06 19:43:00,
2013-03-06 14:52:00,28.0,27.0,29.92,North,-99,7.0,-999.0,92,-99.99,,,-99.99,,2013-03-06 19:52:00,
2013-03-06 15:33:00,28.0,25.0,29.95,NW,320,9.0,-999.0,86,-99.99,,,-99.99,,2013-03-06 20:33:00,
2013-03-06 15:42:00,28.0,25.0,29.95,NW,320,9.0,-999.0,86,-99.99,,,-99.99,,2013-03-06 20:42:00,
2013-03-06 15:52:00,28.0,25.0,29.95,NW,320,9.0,-999.0,86,-99.99,,,-99.99,,2013-03-06 20:52:00,
2013-03-06 16:22:00,28.0,27.0,29.96,WNW,300,12.0,18.0,92,-99.99,,,-99.99,,2013-03-06 21:22:00,
2013-03-06 16:32:00,28.0,27.0,29.96,WNW,300,12.0,18.0,92,-99.99,,,-99.99,,2013-03-06 21:32:00,
2013-03-06 16:42:00,28.0,27.0,29.96,WNW,300,12.0,18.0,92,-99.99,,,-99.99,,2013-03-06 21:42:00,
2013-03-06 16:52:00,28.0,27.0,29.96,WNW,300,12.0,18.0,92,-99.99,,,-99.99,,2013-03-06 21:52:00,
2013-03-06 17:22:00,28.0,25.0,29.99,NW,310,8.0,-999.0,86,-99.99,,,-99.99,,2013-03-06 22:22:00,
2013-03-06 17:32:00,28.0,25.0,29.99,NW,310,8.0,-999.0,86,-99.99,,,-99.99,,2013-03-06 22:32:00,
2013-03-06 17:42:00,28.0,25.0,29.99,NW,310,8.0,-999.0,86,-99.99,,,-99.99,,2013-03-06 22:42:00,
2013-03-06 17:52:00,28.0,25.0,29.99,NW,310,8.0,-999.0,86,-99.99,,,-99.99,,2013-03-06 22:52:00,
2013-03-06 18:11:00,30.0,25.0,30.01,North,-99,6.0,-999.0,80,-99.99,,,-99.99,,2013-03-06 23:11:00,
2013-03-06 18:22:00,30.0,25.0,30.01,North,-99,6.0,-999.0,80,-99.99,,,-99.99,,2013-03-06 23:22:00,
2013-03-06 18:32:00,30.0,25.0,30.01,North,-99,6.0,-999.0,80,-99.99,,,-99.99,,2013-03-06 23:32:00,
2013-03-06 18:42:00,30.0,25.0,30.01,North,-99,6.0,-999.0,80,-99.99,,,-99.99,,2013-03-06 23:42:00,
2013-03-06 18:52:00,30.0,25.0,30.01,North,-99,6.0,-999.0,80,-99.99,,,-99.99,,2013-03-06 23:52:00,
2013-03-06 19:11:00,28.0,25.0,30.02,NW,320,8.0,-999.0,86,-99.99,,,-99.99,,2013-03-07 00:11:00,
2013-03-06 19:22:00,28.0,25.0,30.02,NW,320,8.0,-999.0,86,-99.99,,,-99.99,,2013-03-07 00:22:00,
2013-03-06 19:32:00,28.0,25.0,30.02,NW,320,8.0,-999.0,86,-99.99,,,-99.99,,2013-03-07 00:32:00,
2013-03-06 19:42:00,28.0,25.0,30.02,NW,320,8.0,-999.0,86,-99.99,,,-99.99,,2013-03-07 00:42:00,
2013-03-06 19:52:00,28.0,25.0,30.02,NW,320,8.0,-999.0,86,-99.99,,,-99.99,,2013-03-07 00:52:00,
2013-03-06 20:12:00,28.0,25.0,30.04,NNW,330,8.0,-999.0,86,-99.99,,,-99.99,,2013-03-07 01:12:00,
2013-03-06 20:22:00,28.0,25.0,30.04,NNW,330,8.0,-999.0,86,-99.99,,,-99.99,,2013-03-07 01:22:00,
2013-03-06 20:32:00,28.0,25.0,30.04,NNW,330,8.0,-999.0,86,-99.99,,,-99.99,,2013-03-07 01:32:00,
2013-03-06 20:42:00,28.0,25.0,30.04,NNW,330,8.0,-999.0,86,-99.99,,,-99.99,,2013-03-07 01:42:00,
2013-03-06 20:51:00,28.0,25.0,30.04,NNW,330,8.0,-999.0,86,-99.99,,,-99.99,,2013-03-07 01:51:00,
2013-03-06 21:11:00,28.0,25.0,30.05,North,-99,7.0,-999.0,86,-99.99,,,-99.99,,2013-03-07 02:11:00,
2013-03-06 21:22:00,28.0,25.0,30.05,North,-99,7.0,-999.0,86,-99.99,,,-99.99,,2013-03-07 02:22:00,
2013-03-06 21:32:00,28.0,25.0,30.05,North,-99,7.0,-999.0,86,-99.99,,,-99.99,,2013-03-07 02:32:00,
2013-03-06 21:42:00,28.0,25.0,30.05,North,-99,7.0,-999.0,86,-99.99,,,-99.99,,2013-03-07 02:42:00,
2013-03-06 21:51:00,28.0,25.0,30.05,North,-99,7.0,-999.0,86,-99.99,,,-99.99,,2013-03-07 02:51:00,
2013-03-06 22:12:00,27.0,25.0,30.06,NW,320,6.0,-999.0,92,-99.99,,,-99.99,,2013-03-07 03:12:00,
2013-03-06 22:22:00,27.0,25.0,30.06,NW,320,6.0,-999.0,92,-99.99,,,-99.99,,2013-03-07 03:22:00,
2013-03-06 22:32:00,27.0,25.0,30.06,NW,320,6.0,-999.0,92,-99.99,,,-99.99,,2013-03-07 03:32:00,
2013-03-06 22:42:00,27.0,25.0,30.06,NW,320,6.0,-999.0,92,-99.99,,,-99.99,,2013-03-07 03:42:00,
2013-03-06 22:52:00,27.0,25.0,30.06,NW,320,6.0,-999.0,92,-99.99,,,-99.99,,2013-03-07 03:52:00,
2013-03-06 23:32:00,27.0,25.0,30.07,NNW,330,6.0,-999.0,92,-99.99,,,-99.99,,2013-03-07 04:32:00,
2013-03-06 23:42:00,27.0,25.0,30.07,NNW,330,6.0,-999.0,92,-99.99,,,-99.99,,2013-03-07 04:42:00,
2013-03-06 23:52:00,27.0,25.0,30.07,NNW,330,6.0,-999.0,92,-99.99,,,-99.99,,2013-03-07 04:52:00,